Облачно, с легким дождем
Облачно, с легким дождем
Облачно, с легким дождем
Переменная с перистой облачностью
Переменная облачность с отдельными перистыми облаками
Переменная облачность с отдельными перистыми облаками
Неустойчивая погода, возможны отдельные грозовые тучи
Неустойчивая погода, возможны отдельные грозовые тучи
Неустойчивая погода, возможны отдельные грозовые тучи
(°C)
19°
19°
19°
19°
18°
18°
18°
18°
19°
19°
20°
20°
21°
21°
23°
23°
25°
25°
(°C)
21°
21°
20°
20°
20°
22°
23°
25°
26°
СВ
СВ
СВ
ВСВ
ВСВ
СВ
ВЮВ
СВ
ССВ
(km/h)
2-7
2-4
2-3
2-2
2-3
2-5
2-7
2-11
3-11
(мм)
0
0.1
0.3
0
0
0
0
0
0
(%)
65
65
65
5
0
0
0
0
5

Высота солнцестояния

/ -15.3°
sun-icon
UV 6
05:02
20:42
Полнолуние (185°)
21:21
04:17

METAR для Hvozdnica (LZZI)

Время Условия Температура/
Точка росы
Ветер Видимость Погода Облачность Давление Изменить Необработанный
VFR 19°C / 17°C 130º 2kt 9700m - Clouds and Visibility OK 1010 - LZZI 210030Z 13002KT CAVOK 19/17 Q1010
VFR 19°C / 17°C 1kt 9700m - Clouds and Visibility OK 1011 - LZZI 210000Z VRB01KT CAVOK 19/17 Q1011
VFR 19°C / 17°C 1kt 9700m - Clouds and Visibility OK 1011 - LZZI 202330Z VRB01KT CAVOK 19/17 Q1011
VFR 20°C / 17°C 1kt 9700m - Clouds and Visibility OK 1010 - LZZI 202300Z VRB01KT CAVOK 20/17 Q1010
VFR 20°C / 18°C 1kt 9700m - Clouds and Visibility OK 1010 - LZZI 202230Z VRB01KT CAVOK 20/18 Q1010
VFR 20°C / 17°C 1kt 9700m - Clouds and Visibility OK 1011 - LZZI 202200Z VRB01KT CAVOK 20/17 Q1011
VFR 20°C / 17°C variable 0kt 9700m - Clouds and Visibility OK 1011 - LZZI 202130Z 00000KT CAVOK 20/17 Q1011
VFR 20°C / 18°C 1kt 9700m - Clouds and Visibility OK 1011 - LZZI 202100Z VRB01KT CAVOK 20/18 Q1011
VFR 21°C / 18°C 1kt 9700m - Clouds and Visibility OK 1011 - LZZI 202030Z VRB01KT CAVOK 21/18 Q1011
VFR 21°C / 17°C 1kt 9700m - Few Clouds 5500ft 1011 - LZZI 202000Z VRB01KT 9999 FEW055 21/17 Q1011
VFR 22°C / 18°C 1kt 9700m - Few Clouds 5300ft 1011 - LZZI 201930Z VRB01KT 9999 FEW053 22/18 Q1011
VFR 23°C / 19°C 1kt 9700m - Scattered Clouds 5200ft 1011 - LZZI 201900Z VRB01KT 9999 SCT052 23/19 Q1011
VFR 23°C / 18°C 280º 2kt 9700m - Scattered Clouds 4800ft 1011 - LZZI 201830Z 28002KT 9999 SCT048 23/18 Q1011
VFR 23°C / 18°C 250º variable 230º to 290º 3kt 9700m - Few Clouds 5500ft 1011 - LZZI 201730Z 25003KT 230V290 9999 FEW055 23/18 Q1011
VFR 23°C / 19°C 250º 4kt 9700m - Few Clouds 5400ft 1011 - LZZI 201700Z 25004KT 9999 FEW054 23/19 Q1011
VFR 24°C / 18°C 240º 5kt 9700m - Few Clouds 5200ft 1011 - LZZI 201630Z 24005KT 9999 FEW052 24/18 Q1011
VFR 24°C / 18°C 240º 5kt 9700m - Few Clouds 5000ft 1011 - LZZI 201600Z 24005KT 9999 FEW050 24/18 Q1011
VFR 25°C / 18°C 240º 8kt 9700m - Few Clouds 5500ft 1011 - LZZI 201530Z 24008KT 9999 FEW055 25/18 Q1011
VFR 25°C / 17°C 250º 5kt 9700m - Few Clouds 5500ft 1011 - LZZI 201500Z 25005KT 9999 FEW055 25/17 Q1011
VFR 26°C / 17°C 230º 6kt 9700m - Few Clouds 5500ft 1011 - LZZI 201430Z 23006KT 9999 FEW055 26/17 Q1011
VFR 26°C / 17°C 250º 5kt 9700m - Few Clouds 5500ft 1011 - LZZI 201400Z 25005KT 9999 FEW055 26/17 Q1011
VFR 26°C / 17°C 260º 5kt 9700m - Few Clouds 5300ft 1012 - LZZI 201330Z 26005KT 9999 FEW053 26/17 Q1012
VFR 26°C / 17°C 240º 6kt 9700m - Few Clouds 5200ft 1012 - LZZI 201300Z 24006KT 9999 FEW052 26/17 Q1012
VFR 26°C / 16°C 240º 5kt 9700m - Few Clouds 5000ft 1012 - LZZI 201230Z 24005KT 9999 FEW050 26/16 Q1012

VFR

19°C / 17°C

[Больше]
Ветер 130º 2kt
Видимость 9700m
Погода -
Облачность Clouds and Visibility OK
Давление 1010
Изменить -
Необработанный LZZI 210030Z 13002KT CAVOK 19/17 Q1010

VFR

19°C / 17°C

[Больше]
Ветер 1kt
Видимость 9700m
Погода -
Облачность Clouds and Visibility OK
Давление 1011
Изменить -
Необработанный LZZI 210000Z VRB01KT CAVOK 19/17 Q1011

VFR

19°C / 17°C

[Больше]
Ветер 1kt
Видимость 9700m
Погода -
Облачность Clouds and Visibility OK
Давление 1011
Изменить -
Необработанный LZZI 202330Z VRB01KT CAVOK 19/17 Q1011

VFR

20°C / 17°C

[Больше]
Ветер 1kt
Видимость 9700m
Погода -
Облачность Clouds and Visibility OK
Давление 1010
Изменить -
Необработанный LZZI 202300Z VRB01KT CAVOK 20/17 Q1010

VFR

20°C / 18°C

[Больше]
Ветер 1kt
Видимость 9700m
Погода -
Облачность Clouds and Visibility OK
Давление 1010
Изменить -
Необработанный LZZI 202230Z VRB01KT CAVOK 20/18 Q1010

VFR

20°C / 17°C

[Больше]
Ветер 1kt
Видимость 9700m
Погода -
Облачность Clouds and Visibility OK
Давление 1011
Изменить -
Необработанный LZZI 202200Z VRB01KT CAVOK 20/17 Q1011

VFR

20°C / 17°C

[Больше]
Ветер variable 0kt
Видимость 9700m
Погода -
Облачность Clouds and Visibility OK
Давление 1011
Изменить -
Необработанный LZZI 202130Z 00000KT CAVOK 20/17 Q1011

VFR

20°C / 18°C

[Больше]
Ветер 1kt
Видимость 9700m
Погода -
Облачность Clouds and Visibility OK
Давление 1011
Изменить -
Необработанный LZZI 202100Z VRB01KT CAVOK 20/18 Q1011

VFR

21°C / 18°C

[Больше]
Ветер 1kt
Видимость 9700m
Погода -
Облачность Clouds and Visibility OK
Давление 1011
Изменить -
Необработанный LZZI 202030Z VRB01KT CAVOK 21/18 Q1011

VFR

21°C / 17°C

[Больше]
Ветер 1kt
Видимость 9700m
Погода -
Облачность Few Clouds 5500ft
Давление 1011
Изменить -
Необработанный LZZI 202000Z VRB01KT 9999 FEW055 21/17 Q1011

VFR

22°C / 18°C

[Больше]
Ветер 1kt
Видимость 9700m
Погода -
Облачность Few Clouds 5300ft
Давление 1011
Изменить -
Необработанный LZZI 201930Z VRB01KT 9999 FEW053 22/18 Q1011

VFR

23°C / 19°C

[Больше]
Ветер 1kt
Видимость 9700m
Погода -
Облачность Scattered Clouds 5200ft
Давление 1011
Изменить -
Необработанный LZZI 201900Z VRB01KT 9999 SCT052 23/19 Q1011

VFR

23°C / 18°C

[Больше]
Ветер 280º 2kt
Видимость 9700m
Погода -
Облачность Scattered Clouds 4800ft
Давление 1011
Изменить -
Необработанный LZZI 201830Z 28002KT 9999 SCT048 23/18 Q1011

VFR

23°C / 18°C

[Больше]
Ветер 250º variable 230º to 290º 3kt
Видимость 9700m
Погода -
Облачность Few Clouds 5500ft
Давление 1011
Изменить -
Необработанный LZZI 201730Z 25003KT 230V290 9999 FEW055 23/18 Q1011

VFR

23°C / 19°C

[Больше]
Ветер 250º 4kt
Видимость 9700m
Погода -
Облачность Few Clouds 5400ft
Давление 1011
Изменить -
Необработанный LZZI 201700Z 25004KT 9999 FEW054 23/19 Q1011

VFR

24°C / 18°C

[Больше]
Ветер 240º 5kt
Видимость 9700m
Погода -
Облачность Few Clouds 5200ft
Давление 1011
Изменить -
Необработанный LZZI 201630Z 24005KT 9999 FEW052 24/18 Q1011

VFR

24°C / 18°C

[Больше]
Ветер 240º 5kt
Видимость 9700m
Погода -
Облачность Few Clouds 5000ft
Давление 1011
Изменить -
Необработанный LZZI 201600Z 24005KT 9999 FEW050 24/18 Q1011

VFR

25°C / 18°C

[Больше]
Ветер 240º 8kt
Видимость 9700m
Погода -
Облачность Few Clouds 5500ft
Давление 1011
Изменить -
Необработанный LZZI 201530Z 24008KT 9999 FEW055 25/18 Q1011

VFR

25°C / 17°C

[Больше]
Ветер 250º 5kt
Видимость 9700m
Погода -
Облачность Few Clouds 5500ft
Давление 1011
Изменить -
Необработанный LZZI 201500Z 25005KT 9999 FEW055 25/17 Q1011

VFR

26°C / 17°C

[Больше]
Ветер 230º 6kt
Видимость 9700m
Погода -
Облачность Few Clouds 5500ft
Давление 1011
Изменить -
Необработанный LZZI 201430Z 23006KT 9999 FEW055 26/17 Q1011

VFR

26°C / 17°C

[Больше]
Ветер 250º 5kt
Видимость 9700m
Погода -
Облачность Few Clouds 5500ft
Давление 1011
Изменить -
Необработанный LZZI 201400Z 25005KT 9999 FEW055 26/17 Q1011

VFR

26°C / 17°C

[Больше]
Ветер 260º 5kt
Видимость 9700m
Погода -
Облачность Few Clouds 5300ft
Давление 1012
Изменить -
Необработанный LZZI 201330Z 26005KT 9999 FEW053 26/17 Q1012

VFR

26°C / 17°C

[Больше]
Ветер 240º 6kt
Видимость 9700m
Погода -
Облачность Few Clouds 5200ft
Давление 1012
Изменить -
Необработанный LZZI 201300Z 24006KT 9999 FEW052 26/17 Q1012

VFR

26°C / 16°C

[Больше]
Ветер 240º 5kt
Видимость 9700m
Погода -
Облачность Few Clouds 5000ft
Давление 1012
Изменить -
Необработанный LZZI 201230Z 24005KT 9999 FEW050 26/16 Q1012

TAF для Hvozdnica (LZZI)

From till


From till Wind 2kt. Visibility 9700m. Nil Significant Cloud.

Необработанный: TAF LZZI 202315Z 2100/2109 VRB02KT CAVOK

Радарный и сверхкраткосрочный прогноз осадков для Hvozdnica

Морось
Незначительные
Умеренные
Сильные
Очень Сильные
Град

Индикатор местности находится на Hvozdnica. Эта анимация показывает радар осадков для выбранного диапазона времени, а также 2h прогноз. Оранжевые кресты обозначают молнию. Данные предоставлены nowcast.de (доступны в США, Европе, Австралии). Морось или небольшой снег могут быть невидимы для радара. Интенсивность осадков имеет цветовую кодировку - от бирюзового до красного.

Текущие спутниковые изображения и снимки дождя для Hvozdnica, Словакия

Указатель местности находится на Hvozdnica. [Больше]

Спутниковое изображение в реальном времени сочетает в себе видимый свет в дневное время с инфракрасным излучением в ночное время. Ночью изображение получается не темным, так как инфракрасное излучение может обнаружить разницу температур. К сожалению, низкие облака и туман трудно отличить от температуры у поверхности земли и поэтому могут быть почти незаметны ночью. Спутниковые снимки Meteosat для Европы обновляются каждые 5 минут в режиме реального времени.Снимки GOES-16/GOES-17 (Северная и Южная Америка) и Химавари (Азия) обновляются каждые 10 минут.

Осадки оцениваются по данным радаров и спутников. Оценка осадков со спутников менее точна ночью, чем днем.

© 2024 meteoblue, NOAA Satellites GOES-16 and EUMETSAT. Данные о молниях предоставляются со стороны nowcast.

Обратно к последним данным
×
Привет,
похоже, что вы используете блокировщик рекламы.

Реклама необходима для поддержания нашего бесплатного сайта с уникальной детализацией и точностью.

Пожалуйста, внесите www.meteoblue.com в белый список вашего блокировщика рекламы или рассмотрите возможность покупки одного из наших продуктов:

У вас уже есть подписка?
Тогда, пожалуйста, логин.